Flag for Western Sahara Weather past 2 weeks in Smara, Western Sahara

Now
63 °F

Scattered clouds.


Feels Like: 63 °F
Forecast: 57 / 88 °F
Wind: 2 mph from Northeast

Location: Laayoune/Hassan Isl

Current Time: Apr 26, 2015 at 10:02:37 AM

Latest Report: Apr 26, 2015 at 9:00 AM


Visibility: N/A

Pressure: 30.09 "Hg

Humidity: 88%

Dew point: 59 °F

Location of SmaraLocation

Historic Weather in Smara — Graph

°F

Smara temperature yesterday

Maximum temperature yesterday: 79 °F (at 2:00 PM)
Minimum temperature yesterday: 55 °F (at 7:00 AM)
Average temperature yesterday: 66 °F

Past Weeks' High & Low Weather Summary

 TemperatureHumidityPressure
High79 °F (Apr 17, 4:00 PM)94% (Apr 26, 7:00 AM)30.15 "Hg (Apr 26, 7:00 AM)
Low52 °F (Apr 14, 8:00 AM)34% (Apr 16, 4:00 PM)29.95 "Hg (Apr 17, 7:00 PM)
Average66 °F64%30.05 "Hg
* Reported Apr 11 9:00 AM — Apr 26 9:00 AM, Smara, Weather by CustomWeather, © 2015

Note: Actual official high and low records may vary slightly from our data, if they occured in-between our weather recording intervals... More about our weather records

Advertising

Smara weather history for previous 24 hours

 ConditionsComfort  
Time TempWeatherWind HumidityBarometerVisibility
9:00 AM
Sun, Apr 26
63 °FScattered clouds.2 mph88%30.09 "HgN/A
8:00 AM59 °FPassing clouds.3 mph88%30.09 "Hg4 mi
7:00 AM59 °FPassing clouds.6 mph94%30.07 "Hg5 mi
6:00 AM59 °FClear.7 mph88%30.07 "Hg10 mi
5:00 AM61 °FClear.7 mph88%30.07 "Hg10 mi
4:00 AM61 °FClear.6 mph88%30.07 "Hg10 mi
3:00 AM63 °FClear.9 mph83%30.09 "Hg10 mi
2:00 AM63 °FClear.9 mph83%30.09 "Hg10 mi
1:00 AM66 °FClear.12 mph78%30.12 "Hg10 mi
12:00 AM66 °FClear.12 mph78%30.12 "Hg10 mi
11:00 PM
Sat, Apr 25
66 °FClear.9 mph73%30.12 "Hg10 mi
10:00 PM66 °FClear.9 mph73%30.09 "Hg10 mi
9:00 PM68 °FClear.13 mph64%30.07 "Hg5 mi
8:00 PM72 °FScattered clouds.14 mph61%30.07 "Hg4 mi
7:00 PM73 °FScattered clouds.16 mph57%30.04 "Hg4 mi
6:00 PM75 °FScattered clouds.17 mph54%30.04 "Hg4 mi
5:00 PM75 °FClear.17 mph54%30.04 "Hg4 mi
4:00 PM75 °FScattered clouds.18 mph50%30.04 "Hg4 mi
3:00 PM77 °FWarm.16 mph47%30.07 "HgN/A
2:00 PM79 °FSunny.7 mph37%30.07 "Hg10 mi
1:00 PM75 °FSunny.10 mph36%30.09 "Hg10 mi
12:00 PM72 °FSunny.10 mph41%30.12 "Hg10 mi
10:00 AM63 °FSunny.12 mph73%30.12 "Hg10 mi
Weather by CustomWeather, © 2015

See weather overviewHow to use our weather pages